THORAD AGENA D DEB

Satellite information

Favourite Embed

Satellite Type and Status

DEBRISIN ORBIT

Key statistics

Satellite THORAD AGENA D DEB at a glance.

Uptime

20283

Days in orbit

Revolutions

≈ 13.9

Per day

Orbit

SSO

Sun Synchronous Orbit

Inclination

100.0

Latest

Satellite identification and parameters

Extended collection of information and parameters for THORAD AGENA D DEB.

Object identification

Identified? True

Debris? True

Object name: THORAD AGENA D DEB

International designator: 1970-025RT

Object number (NORAD): 42513

Object ID (CCSDS): 42513

Country: UNITED STATES OF AMERICA (US)

Current information (Y/N): Y

RCS size: SMALL

Orbital parameters

Period: 103.712 minutes

Inclination: 99.9902 deg

SMA: 7312.149 km

Apoapsis: 943.429 km

Periapsis: 924.6 km

RAAN: 284.665 deg

Eccentricy: 0.0012875

Argument of periapsis: 119.9604 deg

Mean anomaly: 240.2831 deg

Mean motion: 13.8846583 rev/day

Mean motion (dot): 0.00002472 rev/day2

B* drag term: 0.0020991 1/REarth

Two-line elements (TLE)

Creation date: Jan. 28, 2025, 2:49 a.m.

Reference frame: TEME

Reference center: EARTH

Epoch: Dec. 24, 2024, 2:03 p.m. UTC

TLE line 0: 0 THORAD AGENA D DEB

TLE line 1: 1 42513U 70025RT 24359.58583686 .00002472 00000-0 20991-2 0 9999

TLE line 2: 2 42513 99.9902 284.6650 0012875 119.9604 240.2831 13.88465830561232

Live tracking on map

Real-time ground track for satellite THORAD AGENA D DEB.

In-orbit conjunctions

A list of the most updated potential collisions computed for object THORAD AGENA D DEB.

Target Orbit TCA Probability of collision Miss distance Type
METEOR 2-17 LEO 2024-09-24 18:54:39 0.0001372839 278.0 (m) PAYLOAD

Associated space launch

Meteorological research and development satellite

THORAD AGENA D DEB was lifted into orbit during the mission ‘Thorad SLV-2G Agena D | Nimbus 4’, on board a Thorad SLV-2G Agena D space rocket.

The launch took place on April 8, 1970, 8:17 a.m. from Space Launch Complex 2E.

For more information about the launch, click the button.

Launch to space Thorad SLV-2G Agena D | Nimbus 4
Thorad SLV-2G Agena D | Nimbus 4

Agency: N/A

Status: Launch Successful

Launch date: April 8, 1970, 8:17 a.m. UTC

Rocket: Thorad SLV-2G Agena D

Launch pad: Space Launch Complex 2E

Location: Vandenberg SFB, CA, USA

...

Latest news about this satellite

There are no fresh news available about this satellite. Check back as we update our databases every day.


Newsletter sign-up

Weekly statistics, charts and insights to help you stay on top of the space industry.